Location: Gleizolles
(44.4833°N, 6.7667°E)
Time: 13:48:15
(UTC+00:00)

deb Explorer IX - Pass Details

Date: 04 July 2024
Orbit: 510 x 878 km, 38.7° (Epoch: 21 July)

Event Time Altitude Azimuth Distance (km) Brightness Sun altitude
Rises 03:03:09 0° 230° (SW) 2,653 - -7.9°
Exits shadow 03:05:35 - 216° (SW) 1,784 ? -7.6°
Reaches altitude 10° 03:05:44 10° 215° (SW) 1,737 ? -7.6°
Maximum altitude 03:08:52 23° 162° (SSE) 1,121 ? -7.2°
Drops below altitude 10° 03:11:58 10° 109° (ESE) 1,723 ? -6.8°
Sets 03:14:30 0° 94° (E) 2,625 ? -6.4°
